Date String (YYYY-MM-DD hh:mm:ss) UTC,Instrument flags,absolute air pressure of the measurement (hPa),sample flow rate (lpm),inlet stack bypass flow (lpm),air temperature of the measurement (°C),ambient temperature measured by the external sensor (°C),aerosol sample conditioner tube jacket temperature (°C),OPC LED temperature (°C),internal box temperature (°C),relative humidity of the measurement (%),span deviation,mass concentration of particles derived from Lorenz-Mie calculation of OPC scattering (μg/m³),mass concentration of particles derived from Lorenz-Mie calculation of OPC scattering (μg/m³),mass concentration of particles derived from Lorenz-Mie calculation of OPC scattering (μg/m³)
DateTimeUTC,F1_M11,P_M11,Q1_M11,Q2_M11,T1_M11,T2_M11,T3_M11,T4_M11,T5_M11,U1_M11,ZSPAN_M11,X2_M11,X0_M11,X1_M11
2023-09-06 07:00:00,SystemResetWarning,0835.3,5.00,000.00,028.2,026.8,000.0,036.6,029.7,25.8,0002.2,0024.80,0037.52,0023.66
2023-09-06 07:01:00,SystemResetWarning,0835.4,5.00,000.00,028.2,026.9,000.0,036.6,029.7,25.8,0002.2,0024.79,0037.20,0023.68
2023-09-06 07:02:00,SystemResetWarning,0835.4,5.00,000.00,028.2,026.9,000.0,036.6,029.8,25.8,0002.2,0024.81,0036.17,0023.72
2023-09-06 07:03:00,SystemResetWarning,0835.4,5.00,000.00,028.2,027.0,000.0,036.7,029.9,25.8,0002.1,0024.78,0036.34,0023.71
2023-09-06 07:04:00,SystemResetWarning,0835.4,5.00,000.00,028.3,027.0,000.0,036.7,029.9,25.7,0001.9,0024.75,0035.71,0023.66
2023-09-06 07:05:00,SystemResetWarning,0835.3,5.00,000.00,028.3,027.1,000.0,036.7,029.9,25.6,0001.9,0024.68,0035.02,0023.61
2023-09-06 07:06:00,SystemResetWarning,0835.4,5.00,000.00,028.3,027.1,000.0,036.7,029.9,25.6,0001.9,0024.66,0035.72,0023.62
2023-09-06 07:07:00,SystemResetWarning,0835.3,5.00,000.00,028.3,027.2,000.0,036.7,030.0,25.5,0002.0,0024.70,0036.91,0023.64
2023-09-06 07:08:00,SystemResetWarning,0835.2,5.00,000.00,028.4,027.2,000.0,036.7,030.0,25.4,0001.9,0024.68,0037.00,0023.59
2023-09-06 07:09:00,SystemResetWarning,0835.2,5.00,000.00,028.4,027.2,000.0,036.7,030.0,25.4,0002.0,0024.69,0036.67,0023.57
2023-09-06 07:10:00,SystemResetWarning,0835.2,5.01,000.00,028.4,027.3,000.0,036.7,030.0,25.3,0001.9,0024.74,0036.83,0023.56
2023-09-06 07:11:00,SystemResetWarning,0835.2,5.01,000.00,028.4,027.3,000.0,036.8,030.1,25.3,0002.0,0024.81,0036.78,0023.58
2023-09-06 07:12:00,SystemResetWarning,0835.2,5.00,000.00,028.4,027.3,000.0,036.8,030.1,25.2,0002.0,0024.88,0037.02,0023.63
2023-09-06 07:13:00,SystemResetWarning,0835.3,4.99,000.00,028.5,027.4,000.0,036.8,030.1,25.2,0002.0,0024.91,0037.44,0023.65
2023-09-06 07:14:00,SystemResetWarning,0835.3,5.00,000.00,028.5,027.4,000.0,036.8,030.1,25.1,0002.0,0024.94,0037.12,0023.67
2023-09-06 07:15:00,SystemResetWarning,0835.2,5.00,000.00,028.5,027.4,000.0,036.8,030.1,25.1,0002.2,0025.00,0037.42,0023.72
2023-09-06 07:16:00,SystemResetWarning,0835.2,4.99,000.00,028.5,027.4,000.0,036.8,030.1,25.1,0002.2,0025.01,0037.29,0023.72
2023-09-06 07:17:00,SystemResetWarning,0835.2,5.01,000.00,028.6,027.4,000.0,036.9,030.2,25.0,0002.2,0024.96,0036.67,0023.69
2023-09-06 07:18:00,SystemResetWarning,0835.2,5.01,000.00,028.6,027.5,000.0,036.9,030.2,25.0,0002.2,0024.96,0035.77,0023.68
2023-09-06 07:19:00,SystemResetWarning,0835.3,5.01,000.00,028.6,027.5,000.0,036.9,030.3,25.0,0002.2,0024.95,0035.73,0023.70
2023-09-06 07:20:00,SystemResetWarning,0835.3,5.00,000.00,028.6,027.5,000.0,036.9,030.2,24.9,0002.2,0024.98,0035.66,0023.75
2023-09-06 07:21:00,SystemResetWarning,0835.3,4.99,000.00,028.6,027.5,000.0,036.9,030.3,24.8,0002.3,0024.96,0035.69,0023.77
2023-09-06 07:22:00,SystemResetWarning,0835.3,4.99,000.00,028.6,026.8,000.0,036.9,030.1,24.8,0002.3,0024.90,0035.86,0023.74
2023-09-06 07:23:00,SystemResetWarning,0835.1,5.00,000.00,028.5,024.9,000.0,036.8,029.6,24.9,0002.4,0024.88,0035.94,0023.70
2023-09-06 07:24:00,SystemResetWarning,0835.2,5.01,000.00,028.4,024.3,000.0,036.8,029.4,25.1,0002.4,0024.85,0035.62,0023.65
2023-09-06 07:25:00,SystemResetWarning,0835.1,5.02,000.00,028.2,024.4,000.0,036.8,029.3,25.2,0002.6,0024.87,0035.43,0023.67
2023-09-06 07:26:00,SystemResetWarning,0835.1,4.99,000.00,028.2,024.7,000.0,036.7,029.3,25.4,0002.6,0024.85,0034.88,0023.67
2023-09-06 07:27:00,SystemResetWarning,0835.2,4.99,000.00,028.1,025.1,000.0,036.7,029.4,25.5,0002.5,0024.83,0034.99,0023.65
2023-09-06 07:28:00,SystemResetWarning,0835.1,5.00,000.00,028.1,025.5,000.0,036.7,029.5,25.5,0002.5,0024.85,0035.67,0023.65
2023-09-06 07:29:00,SystemResetWarning,0835.2,5.01,000.00,028.1,025.8,000.0,036.7,029.5,25.6,0002.6,0024.86,0035.76,0023.66
2023-09-06 07:30:00,SystemResetWarning,0835.2,5.00,000.00,028.1,026.1,000.0,036.7,029.6,25.6,0002.5,0024.84,0035.63,0023.67
2023-09-06 07:31:00,SystemResetWarning,0835.2,5.00,000.00,028.1,026.3,000.0,036.7,029.6,25.6,0002.5,0024.87,0035.59,0023.69
2023-09-06 07:32:00,SystemResetWarning,0835.2,4.99,000.00,028.1,026.4,000.0,036.7,029.6,25.6,0002.5,0024.95,0035.43,0023.73
2023-09-06 07:33:00,SystemResetWarning,0835.1,5.00,000.00,028.2,026.6,000.0,036.7,029.7,25.5,0002.5,0025.03,0035.14,0023.77
2023-09-06 07:34:00,SystemResetWarning,0835.1,5.00,000.00,028.2,026.7,000.0,036.7,029.7,25.5,0002.5,0025.07,0035.35,0023.77
2023-09-06 07:35:00,SystemResetWarning,0835.1,5.00,000.00,028.2,026.8,000.0,036.7,029.8,25.5,0002.5,0025.07,0035.51,0023.80
2023-09-06 07:36:00,SystemResetWarning,0835.1,5.00,000.00,028.2,026.9,000.0,036.7,029.8,25.4,0002.4,0025.11,0035.66,0023.84
2023-09-06 07:37:00,SystemResetWarning,0835.1,5.00,000.00,028.2,026.9,000.0,036.7,029.8,25.4,0002.4,0025.09,0036.37,0023.79
2023-09-06 07:38:00,SystemResetWarning,0835.1,5.00,000.00,028.3,027.0,000.0,036.7,029.8,25.3,0002.5,0025.06,0036.69,0023.75
2023-09-06 07:39:00,SystemResetWarning,0835.1,4.99,000.00,028.3,027.0,000.0,036.7,029.8,25.2,0002.6,0025.02,0036.31,0023.71
2023-09-06 07:40:00,SystemResetWarning,0835.1,5.00,000.00,028.3,027.1,000.0,036.7,029.9,25.1,0002.5,0024.91,0035.79,0023.63
2023-09-06 07:41:00,SystemResetWarning,0835.1,5.02,000.00,028.3,027.1,000.0,036.7,029.9,25.0,0002.5,0024.87,0035.35,0023.55
2023-09-06 07:42:00,SystemResetWarning,0835.1,5.00,000.00,028.3,027.1,000.0,036.7,029.9,24.9,0002.5,0024.84,0035.19,0023.50
2023-09-06 07:43:00,SystemResetWarning,0835.1,4.99,000.00,028.4,027.2,000.0,036.8,030.0,24.9,0002.6,0024.78,0035.22,0023.44
2023-09-06 07:44:00,SystemResetWarning,0835.1,4.99,000.00,028.4,027.2,000.0,036.8,030.0,24.9,0002.4,0024.66,0035.16,0023.34
2023-09-06 07:45:00,SystemResetWarning,0835.1,4.99,000.00,028.4,027.2,000.0,036.8,030.0,24.9,0002.4,0024.52,0034.86,0023.25
2023-09-06 07:46:00,SystemResetWarning,0835.2,5.02,000.00,028.4,027.3,000.0,036.8,030.1,25.1,0002.4,0024.47,0034.64,0023.19
2023-09-06 07:47:00,SystemResetWarning,0835.2,5.01,000.00,028.5,027.3,000.0,036.8,030.1,25.1,0002.4,0024.39,0034.53,0023.13
2023-09-06 07:48:00,SystemResetWarning,0835.2,5.00,000.00,028.5,027.3,000.0,036.8,030.1,25.0,0002.4,0024.32,0033.89,0023.07
2023-09-06 07:49:00,SystemResetWarning,0835.2,5.00,000.00,028.5,027.4,000.0,036.8,030.1,24.9,0002.3,0024.30,0033.70,0023.07
2023-09-06 07:50:00,SystemResetWarning,0835.2,4.99,000.00,028.5,027.4,000.0,036.9,030.2,24.8,0002.2,0024.32,0033.71,0023.10
2023-09-06 07:51:00,SystemResetWarning,0835.1,5.00,000.00,028.6,027.4,000.0,036.9,030.2,24.7,0002.2,0024.36,0033.70,0023.14
2023-09-06 07:52:00,SystemResetWarning,0835.1,4.99,000.00,028.6,027.4,000.0,036.9,030.2,24.7,0002.2,0024.38,0033.71,0023.18
2023-09-06 07:53:00,SystemResetWarning,0835.0,4.99,000.00,028.6,027.5,000.0,036.9,030.2,24.5,0002.2,0024.33,0033.66,0023.16
2023-09-06 07:54:00,SystemResetWarning,0835.0,5.00,000.00,028.6,027.5,000.0,036.9,030.3,24.5,0002.1,0024.37,0033.71,0023.17
2023-09-06 07:55:00,SystemResetWarning,0835.0,5.00,000.00,028.6,027.5,000.0,036.9,030.2,24.5,0002.2,0024.38,0034.30,0023.20
2023-09-06 07:56:00,SystemResetWarning,0835.0,5.01,000.00,028.7,027.5,000.0,037.0,030.3,24.5,0002.1,0024.39,0035.13,0023.25
2023-09-06 07:57:00,SystemResetWarning,0835.0,5.00,000.00,028.7,027.5,000.0,037.0,030.3,24.2,0002.1,0024.45,0035.37,0023.29
2023-09-06 07:58:00,SystemResetWarning,0835.0,5.01,000.00,028.7,027.5,000.0,037.0,030.2,24.3,0002.1,0024.47,0035.44,0023.29
2023-09-06 07:59:00,SystemResetWarning,0835.0,5.01,000.00,028.7,027.5,000.0,037.0,030.3,24.6,0002.2,0024.49,0035.74,0023.31
